Location: Unspecified
(0.0000°N, 0.0000°E)
Time: 06:18:07
(UTC+00:00)

XW-2C - Visible Passes

Search period start: 22 July 2018 00:00
Search period end: 01 August 2018 00:00
Orbit: 511 x 529 km, 97.5° (Epoch: 21 July)

Date Brightness Start Highest point End Pass type
(mag) Time Alt. Az. Time Alt. Az. Time Alt. Az.
22 Jul ? 05:13:34 10° NE 05:16:54 30° E 05:20:14 10° SSE visible
23 Jul ? 05:00:48 10° NE 05:03:30 19° ESE 05:06:11 10° SSE visible
23 Jul ? 18:28:19 10° SW 18:30:39 16° WSW 18:33:00 10° WNW visible
24 Jul ? 04:48:45 10° E 04:50:05 12° ESE 04:51:26 10° ESE visible
27 Jul ? 05:39:57 10° NNE 05:43:44 87° E 05:47:30 10° S visible
28 Jul ? 05:26:40 10° NNE 05:30:19 50° E 05:33:58 10° S visible
29 Jul ? 05:13:35 10° NE 05:16:54 30° E 05:20:13 10° SSE visible
30 Jul ? 05:00:49 10° NE 05:03:29 19° ESE 05:06:09 10° SSE visible
30 Jul ? 18:28:17 10° SW 18:30:39 16° WSW 18:33:01 10° WNW visible
31 Jul ? 04:48:46 10° E 04:50:04 11° ESE 04:51:23 10° ESE visible
